| time (UTC) | temp C | wind direction | speed KPH | gust KPH | rain 1hr cm | rain 24hr cm | rain mn cm | humidity % | barometer mb |
| 20260508080507 | 12 | 94 | 0.0 | 3.2 | 0.00 | 2.39 | 0.00 | 75 | 1015.0 |
| 20260508080007 | 12 | 313 | 0.0 | 0.0 | 0.00 | 2.51 | 0.00 | 75 | 1015.1 |
| 20260508075503 | 12 | 313 | 0.0 | 3.2 | 0.00 | 2.64 | 0.00 | 75 | 1015.0 |
| 20260508075003 | 12 | 313 | 0.0 | 3.2 | 0.00 | 2.72 | 0.00 | 74 | 1015.1 |
| 20260508074511 | 12 | 309 | 0.0 | 3.2 | 0.00 | 2.77 | 0.00 | 74 | 1015.1 |
| 20260508074007 | 12 | 309 | 0.0 | 3.2 | 0.00 | 2.79 | 0.00 | 74 | 1015.0 |
| 20260508073507 | 12 | 309 | 0.0 | 3.2 | 0.00 | 2.79 | 0.00 | 74 | 1015.0 |
| 20260508073017 | 12 | 86 | 0.0 | 3.2 | 0.00 | 2.82 | 0.00 | 75 | 1015.0 |
| 20260508072507 | 12 | 68 | 0.0 | 3.2 | 0.00 | 2.84 | 0.00 | 76 | 1014.9 |
| 20260508072010 | 12 | 136 | 0.0 | 3.2 | 0.00 | 2.87 | 0.00 | 76 | 1014.9 |
| 20260508071522 | 12 | 91 | 0.0 | 0.0 | 0.00 | 2.87 | 0.00 | 78 | 1015.0 |
| 20260508071010 | 11 | 134 | 0.0 | 0.0 | 0.00 | 2.92 | 0.00 | 78 | 1014.9 |
| 20260508070509 | 11 | 143 | 0.0 | 0.0 | 0.00 | 3.02 | 0.00 | 79 | 1014.9 |
| 20260508070030 | 11 | 143 | 0.0 | 0.0 | 0.00 | 3.07 | 0.00 | 80 | 1014.8 |
| 20260508065504 | 11 | 143 | 0.0 | 0.0 | 0.00 | 3.15 | 0.00 | 80 | 1014.7 |
| 20260508065004 | 11 | 143 | 0.0 | 0.0 | 0.00 | 3.17 | 0.00 | 80 | 1014.6 |
| 20260508064519 | 11 | 143 | 0.0 | 0.0 | 0.00 | 3.23 | 0.00 | 81 | 1014.7 |
| 20260508064004 | 11 | 143 | 0.0 | 0.0 | 0.00 | 3.30 | 0.00 | 81 | 1014.7 |
| 20260508063512 | 11 | 143 | 0.0 | 0.0 | 0.00 | 3.35 | 0.00 | 81 | 1014.6 |
| 20260508063018 | 11 | 143 | 0.0 | 0.0 | 0.00 | 3.43 | 0.00 | 81 | 1014.6 |
| 20260508062506 | 11 | 143 | 0.0 | 0.0 | 0.00 | 3.58 | 0.00 | 81 | 1014.7 |
| 20260508062014 | 11 | 143 | 0.0 | 0.0 | 0.00 | 3.66 | 0.00 | 81 | 1014.7 |
| 20260508061519 | 11 | 143 | 0.0 | 0.0 | 0.00 | 3.68 | 0.00 | 80 | 1014.7 |
| 20260508061009 | 11 | 143 | 0.0 | 1.6 | 0.00 | 3.68 | 0.00 | 80 | 1014.7 |
| 20260508060514 | 11 | 143 | 0.0 | 1.6 | 0.00 | 3.73 | 0.00 | 79 | 1014.7 |
| 20260508060025 | 11 | 143 | 0.0 | 3.2 | 0.00 | 3.84 | 0.00 | 79 | 1014.8 |
| 20260508055509 | 11 | 143 | 0.0 | 3.2 | 0.00 | 3.94 | 0.00 | 79 | 1014.8 |
| 20260508055009 | 11 | 143 | 0.0 | 3.2 | 0.00 | 3.99 | 0.00 | 79 | 1014.9 |
| 20260508054511 | 12 | 143 | 0.0 | 3.2 | 0.00 | 4.01 | 0.00 | 79 | 1014.8 |
| 20260508054004 | 12 | 98 | 0.0 | 0.0 | 0.00 | 4.09 | 0.00 | 79 | 1014.9 |
| 20260508053506 | 12 | 87 | 0.0 | 0.0 | 0.00 | 4.14 | 0.00 | 78 | 1015.0 |
| 20260508053014 | 12 | 87 | 0.0 | 0.0 | 0.00 | 4.27 | 0.00 | 78 | 1015.0 |
| 20260508052507 | 12 | 87 | 0.0 | 0.0 | 0.00 | 4.32 | 0.00 | 78 | 1014.9 |
| 20260508052007 | 12 | 87 | 0.0 | 0.0 | 0.00 | 4.42 | 0.00 | 77 | 1014.7 |
| 20260508051529 | 12 | 87 | 0.0 | 1.6 | 0.00 | 4.62 | 0.00 | 77 | 1014.8 |
| 20260508051011 | 12 | 102 | 0.0 | 1.6 | 0.00 | 4.70 | 0.00 | 77 | 1014.9 |
| 20260508050511 | 12 | 102 | 0.0 | 0.0 | 0.00 | 4.98 | 0.00 | 76 | 1014.9 |
| 20260508050021 | 12 | 102 | 0.0 | 0.0 | 0.00 | 5.44 | 0.00 | 76 | 1014.7 |
| 20260508045509 | 12 | 102 | 0.0 | 3.2 | 0.00 | 5.69 | 0.00 | 77 | 1014.9 |
| 20260508045010 | 12 | 102 | 0.0 | 3.2 | 0.00 | 5.99 | 0.00 | 77 | 1014.5 |
| 20260508044531 | 12 | 102 | 0.0 | 1.6 | 0.00 | 6.30 | 0.00 | 77 | 1014.5 |
| 20260508044009 | 12 | 102 | 0.0 | 3.2 | 0.00 | 6.50 | 0.00 | 78 | 1014.4 |
| 20260508043507 | 12 | 102 | 0.0 | 3.2 | 0.00 | 6.65 | 0.00 | 77 | 1014.4 |
| 20260508043017 | 12 | 102 | 0.0 | 1.6 | 0.00 | 6.65 | 0.00 | 77 | 1014.5 |
| 20260508042507 | 13 | 102 | 0.0 | 1.6 | 0.00 | 6.65 | 0.00 | 77 | 1014.4 |
| 20260508042006 | 13 | 102 | 0.0 | 0.0 | 0.00 | 6.65 | 0.00 | 77 | 1014.3 |
| 20260508041521 | 13 | 102 | 0.0 | 0.0 | 0.00 | 6.65 | 0.00 | 77 | 1014.2 |
| 20260508041008 | 13 | 102 | 0.0 | 3.2 | 0.00 | 6.65 | 0.00 | 76 | 1014.2 |
| 20260508040508 | 13 | 102 | 0.0 | 3.2 | 0.00 | 6.65 | 0.00 | 75 | 1014.2 |
| 20260508040022 | 13 | 347 | 0.0 | 3.2 | 0.00 | 6.68 | 0.00 | 75 | 1014.3 |
| 20260508035514 | 13 | 347 | 0.0 | 3.2 | 0.00 | 6.68 | 6.68 | 74 | 1014.2 |
| 20260508035010 | 13 | 347 | 1.6 | 3.2 | 0.00 | 6.68 | 6.68 | 73 | 1014.4 |
| 20260508034532 | 13 | 101 | 0.0 | 0.0 | 0.00 | 6.68 | 6.68 | 72 | 1014.4 |
| 20260508034009 | 13 | 101 | 0.0 | 0.0 | 0.00 | 6.68 | 6.68 | 71 | 1014.3 |
| 20260508033510 | 13 | 101 | 0.0 | 0.0 | 0.00 | 6.68 | 6.68 | 71 | 1014.4 |
| 20260508033030 | 14 | 101 | 0.0 | 0.0 | 0.00 | 6.68 | 6.68 | 72 | 1014.3 |
| 20260508032509 | 14 | 101 | 0.0 | 0.0 | 0.00 | 6.68 | 6.68 | 71 | 1014.3 |
| 20260508032006 | 14 | 101 | 0.0 | 0.0 | 0.00 | 6.68 | 6.68 | 70 | 1014.3 |
| 20260508031515 | 14 | 101 | 0.0 | 0.0 | 0.00 | 6.68 | 6.68 | 68 | 1014.3 |
| 20260508031006 | 15 | 101 | 0.0 | 0.0 | 0.00 | 6.68 | 6.68 | 67 | 1014.3 |
| 20260508030508 | 15 | 101 | 0.0 | 0.0 | 0.00 | 6.68 | 6.68 | 69 | 1014.2 |
| 20260508030022 | 15 | 101 | 0.0 | 0.0 | 0.00 | 6.68 | 6.68 | 67 | 1014.2 |
| 20260508025510 | 15 | 101 | 0.0 | 0.0 | 0.00 | 6.68 | 6.68 | 66 | 1014.1 |
| 20260508025009 | 15 | 101 | 0.0 | 0.0 | 0.00 | 6.68 | 6.68 | 67 | 1014.1 |